Time,TemperatureF,DewpointF,PressureIn,WindDirection,WindDirectionDegrees,WindSpeedMPH,WindSpeedGustMPH,Humidity,HourlyPrecipIn,Conditions,Clouds,dailyrainin,SoftwareType,DateUTC
2013-05-21 00:01:00,51.0,46.0,29.87,NW,317,3.0,12.0,84,0.00,,,0.00,,2013-05-21 07:01:00,
2013-05-21 00:11:00,50.0,45.0,29.87,NW,311,4.0,12.0,84,0.00,,,0.00,,2013-05-21 07:11:00,
2013-05-21 00:21:00,50.0,45.0,29.87,NW,311,4.0,12.0,84,0.00,,,0.00,,2013-05-21 07:21:00,
2013-05-21 00:31:00,50.0,46.0,29.86,NNW,336,4.0,9.0,86,0.00,,,0.00,,2013-05-21 07:31:00,
2013-05-21 00:41:00,50.0,46.0,29.86,NNW,336,4.0,9.0,86,0.00,,,0.00,,2013-05-21 07:41:00,
2013-05-21 00:52:00,49.0,45.0,29.87,NNW,347,4.0,12.0,86,0.00,,,0.00,,2013-05-21 07:52:00,
2013-05-21 01:01:00,49.0,45.0,29.86,NNE,20,5.0,12.0,87,0.00,,,0.00,,2013-05-21 08:01:00,
2013-05-21 01:11:00,49.0,46.0,29.85,North,9,3.0,11.0,88,0.00,,,0.00,,2013-05-21 08:11:00,
2013-05-21 01:21:00,49.0,46.0,29.85,North,9,3.0,11.0,88,0.00,,,0.00,,2013-05-21 08:21:00,
2013-05-21 01:31:00,48.0,45.0,29.85,North,358,4.0,10.0,88,0.00,,,0.00,,2013-05-21 08:31:00,
2013-05-21 01:41:00,48.0,45.0,29.85,North,349,5.0,11.0,90,0.01,,,0.01,,2013-05-21 08:41:00,
2013-05-21 01:52:00,48.0,45.0,29.85,North,349,5.0,11.0,90,0.01,,,0.01,,2013-05-21 08:52:00,
2013-05-21 02:01:00,48.0,45.0,29.85,North,350,1.0,7.0,91,0.03,,,0.03,,2013-05-21 09:01:00,
2013-05-21 02:11:00,48.0,46.0,29.85,NNW,328,2.0,6.0,92,0.05,,,0.05,,2013-05-21 09:11:00,
2013-05-21 02:21:00,48.0,46.0,29.85,NNW,328,2.0,6.0,92,0.05,,,0.05,,2013-05-21 09:21:00,
2013-05-21 02:32:00,48.0,46.0,29.85,NNE,19,5.0,10.0,92,0.06,,,0.06,,2013-05-21 09:32:00,
2013-05-21 02:41:00,48.0,46.0,29.85,NNE,19,5.0,10.0,92,0.06,,,0.06,,2013-05-21 09:41:00,
2013-05-21 02:52:00,48.0,46.0,29.83,North,0,0.0,1.0,93,0.08,,,0.09,,2013-05-21 09:52:00,
2013-05-21 03:02:00,48.0,46.0,29.83,North,0,0.0,1.0,94,0.10,,,0.13,,2013-05-21 10:02:00,
2013-05-21 03:12:00,48.0,46.0,29.83,North,0,0.0,1.0,94,0.10,,,0.13,,2013-05-21 10:12:00,
2013-05-21 03:22:00,49.0,47.0,29.83,SW,233,3.0,7.0,94,0.10,,,0.15,,2013-05-21 10:22:00,
2013-05-21 03:32:00,48.0,46.0,29.83,WSW,243,4.0,7.0,94,0.12,,,0.19,,2013-05-21 10:32:00,
2013-05-21 03:41:00,48.0,46.0,29.83,WSW,243,4.0,7.0,94,0.12,,,0.19,,2013-05-21 10:41:00,
2013-05-21 03:52:00,47.0,45.0,29.82,WSW,237,3.0,9.0,93,0.12,,,0.22,,2013-05-21 10:52:00,
2013-05-21 04:02:00,47.0,45.0,29.82,SSW,197,2.0,4.0,93,0.10,,,0.24,,2013-05-21 11:02:00,
2013-05-21 04:11:00,47.0,45.0,29.82,SSW,197,2.0,4.0,93,0.10,,,0.24,,2013-05-21 11:11:00,
2013-05-21 04:21:00,46.0,44.0,29.82,West,263,1.0,4.0,92,0.10,,,0.25,,2013-05-21 11:21:00,
2013-05-21 04:31:00,46.0,44.0,29.81,SW,217,1.0,4.0,93,0.08,,,0.25,,2013-05-21 11:31:00,
2013-05-21 04:41:00,46.0,44.0,29.81,SW,217,1.0,4.0,93,0.08,,,0.25,,2013-05-21 11:41:00,
2013-05-21 04:52:00,46.0,44.0,29.81,SSW,197,3.0,10.0,92,0.06,,,0.28,,2013-05-21 11:52:00,
2013-05-21 05:01:00,46.0,44.0,29.81,SSW,202,3.0,11.0,93,0.07,,,0.31,,2013-05-21 12:01:00,
2013-05-21 05:11:00,46.0,44.0,29.81,SSW,202,3.0,11.0,93,0.07,,,0.31,,2013-05-21 12:11:00,
2013-05-21 05:21:00,46.0,44.0,29.81,SSW,202,3.0,11.0,93,0.07,,,0.31,,2013-05-21 12:21:00,
2013-05-21 05:31:00,46.0,44.0,29.81,South,181,2.0,8.0,93,0.08,,,0.34,,2013-05-21 12:31:00,
2013-05-21 05:41:00,46.0,44.0,29.81,South,181,2.0,8.0,93,0.08,,,0.34,,2013-05-21 12:41:00,
2013-05-21 05:52:00,46.0,44.0,29.80,SSW,197,2.0,10.0,94,0.07,,,0.35,,2013-05-21 12:52:00,
2013-05-21 06:01:00,46.0,44.0,29.80,South,173,1.0,6.0,94,0.06,,,0.37,,2013-05-21 13:01:00,
2013-05-21 06:11:00,46.0,44.0,29.80,South,173,1.0,6.0,94,0.06,,,0.37,,2013-05-21 13:11:00,
2013-05-21 06:21:00,45.0,43.0,29.80,South,190,5.0,12.0,94,0.04,,,0.37,,2013-05-21 13:21:00,
2013-05-21 06:31:00,46.0,45.0,29.80,South,176,3.0,11.0,95,0.04,,,0.38,,2013-05-21 13:31:00,
2013-05-21 06:41:00,45.0,43.0,29.80,South,181,3.0,9.0,94,0.04,,,0.39,,2013-05-21 13:41:00,
2013-05-21 06:52:00,45.0,43.0,29.80,South,181,3.0,9.0,94,0.04,,,0.39,,2013-05-21 13:52:00,
2013-05-21 07:01:00,45.0,44.0,29.80,South,175,2.0,7.0,95,0.02,,,0.39,,2013-05-21 14:01:00,
2013-05-21 07:11:00,45.0,44.0,29.80,South,175,2.0,7.0,95,0.02,,,0.39,,2013-05-21 14:11:00,
2013-05-21 07:21:00,46.0,45.0,29.79,SSW,197,8.0,12.0,95,0.02,,,0.39,,2013-05-21 14:21:00,
2013-05-21 07:31:00,46.0,44.0,29.79,South,182,4.0,7.0,94,0.02,,,0.40,,2013-05-21 14:31:00,
2013-05-21 07:41:00,46.0,44.0,29.79,SSW,194,3.0,7.0,94,0.01,,,0.40,,2013-05-21 14:41:00,
2013-05-21 07:51:00,46.0,44.0,29.79,SSW,194,3.0,7.0,94,0.01,,,0.40,,2013-05-21 14:51:00,
2013-05-21 08:01:00,46.0,45.0,29.79,South,189,2.0,6.0,95,0.01,,,0.40,,2013-05-21 15:01:00,
2013-05-21 08:11:00,46.0,45.0,29.78,South,177,2.0,7.0,95,0.01,,,0.40,,2013-05-21 15:11:00,
2013-05-21 08:21:00,46.0,45.0,29.78,South,177,2.0,7.0,95,0.01,,,0.40,,2013-05-21 15:21:00,
2013-05-21 08:32:00,46.0,45.0,29.78,SSE,165,3.0,7.0,95,0.00,,,0.40,,2013-05-21 15:32:00,
2013-05-21 08:42:00,46.0,45.0,29.78,South,179,2.0,5.0,95,0.00,,,0.40,,2013-05-21 15:42:00,
2013-05-21 08:52:00,46.0,45.0,29.78,South,179,2.0,5.0,95,0.00,,,0.40,,2013-05-21 15:52:00,
2013-05-21 09:02:00,46.0,45.0,29.78,South,191,2.0,11.0,95,0.00,,,0.40,,2013-05-21 16:02:00,
2013-05-21 09:12:00,46.0,44.0,29.77,South,182,3.0,6.0,94,0.00,,,0.40,,2013-05-21 16:12:00,
2013-05-21 09:23:00,46.0,44.0,29.77,South,182,3.0,6.0,94,0.00,,,0.40,,2013-05-21 16:23:00,
2013-05-21 09:32:00,47.0,45.0,29.76,SSW,207,2.0,6.0,94,0.00,,,0.40,,2013-05-21 16:32:00,
2013-05-21 09:42:00,47.0,45.0,29.76,North,0,0.0,6.0,94,0.00,,,0.40,,2013-05-21 16:42:00,
2013-05-21 09:52:00,47.0,45.0,29.76,North,0,0.0,6.0,94,0.00,,,0.40,,2013-05-21 16:52:00,
2013-05-21 10:02:00,47.0,45.0,29.76,South,172,1.0,4.0,94,0.00,,,0.40,,2013-05-21 17:02:00,
2013-05-21 10:11:00,47.0,45.0,29.76,South,191,2.0,10.0,93,0.00,,,0.40,,2013-05-21 17:11:00,
2013-05-21 10:22:00,47.0,45.0,29.76,South,191,2.0,10.0,93,0.00,,,0.40,,2013-05-21 17:22:00,
2013-05-21 10:32:00,47.0,45.0,29.76,South,185,1.0,7.0,92,0.00,,,0.40,,2013-05-21 17:32:00,
2013-05-21 10:43:00,47.0,45.0,29.76,South,190,3.0,7.0,92,0.00,,,0.40,,2013-05-21 17:43:00,
2013-05-21 10:52:00,47.0,45.0,29.76,South,190,3.0,7.0,92,0.00,,,0.40,,2013-05-21 17:52:00,
2013-05-21 11:01:00,48.0,46.0,29.75,South,171,3.0,6.0,92,0.00,,,0.40,,2013-05-21 18:01:00,
2013-05-21 11:11:00,49.0,46.0,29.75,South,176,1.0,7.0,91,0.00,,,0.40,,2013-05-21 18:11:00,
2013-05-21 11:22:00,49.0,46.0,29.75,South,176,1.0,7.0,91,0.00,,,0.40,,2013-05-21 18:22:00,
2013-05-21 11:32:00,50.0,47.0,29.75,South,174,3.0,7.0,88,0.00,,,0.40,,2013-05-21 18:32:00,
2013-05-21 11:41:00,51.0,46.0,29.75,South,171,2.0,10.0,84,0.00,,,0.40,,2013-05-21 18:41:00,
2013-05-21 11:52:00,51.0,46.0,29.75,South,171,2.0,10.0,84,0.00,,,0.40,,2013-05-21 18:52:00,
2013-05-21 12:01:00,52.0,46.0,29.74,South,169,2.0,5.0,81,0.00,,,0.40,,2013-05-21 19:01:00,
2013-05-21 12:11:00,52.0,46.0,29.75,ESE,114,2.0,6.0,79,0.00,,,0.40,,2013-05-21 19:11:00,
2013-05-21 12:21:00,52.0,46.0,29.75,ESE,114,2.0,6.0,79,0.00,,,0.40,,2013-05-21 19:21:00,
2013-05-21 12:31:00,51.0,45.0,29.74,North,0,0.0,4.0,80,0.00,,,0.40,,2013-05-21 19:31:00,
2013-05-21 12:41:00,51.0,45.0,29.74,ESE,112,1.0,5.0,81,0.00,,,0.40,,2013-05-21 19:41:00,
2013-05-21 12:52:00,51.0,45.0,29.74,ESE,112,1.0,5.0,81,0.00,,,0.40,,2013-05-21 19:52:00,
2013-05-21 13:03:00,50.0,45.0,29.75,ESE,114,1.0,4.0,82,0.00,,,0.40,,2013-05-21 20:03:00,
2013-05-21 13:11:00,51.0,46.0,29.75,ESE,110,3.0,6.0,82,0.00,,,0.40,,2013-05-21 20:11:00,
2013-05-21 13:21:00,51.0,46.0,29.75,ESE,110,3.0,6.0,82,0.00,,,0.40,,2013-05-21 20:21:00,
2013-05-21 13:32:00,53.0,45.0,29.74,South,176,5.0,9.0,75,0.00,,,0.40,,2013-05-21 20:32:00,
2013-05-21 13:42:00,54.0,46.0,29.74,South,182,3.0,7.0,73,0.00,,,0.40,,2013-05-21 20:42:00,
2013-05-21 13:52:00,54.0,46.0,29.74,South,182,3.0,7.0,73,0.00,,,0.40,,2013-05-21 20:52:00,
2013-05-21 14:01:00,54.0,45.0,29.74,South,188,4.0,6.0,72,0.00,,,0.40,,2013-05-21 21:01:00,
2013-05-21 14:11:00,54.0,45.0,29.74,South,188,4.0,6.0,72,0.00,,,0.40,,2013-05-21 21:11:00,
2013-05-21 14:21:00,56.0,46.0,29.74,South,189,3.0,10.0,68,0.00,,,0.40,,2013-05-21 21:21:00,
2013-05-21 14:32:00,55.0,45.0,29.74,SSW,197,1.0,4.0,68,0.00,,,0.40,,2013-05-21 21:32:00,
2013-05-21 14:43:00,55.0,48.0,29.74,West,271,7.0,10.0,76,0.00,,,0.40,,2013-05-21 21:43:00,
2013-05-21 14:53:00,55.0,48.0,29.74,West,271,7.0,10.0,76,0.00,,,0.40,,2013-05-21 21:53:00,
2013-05-21 15:02:00,51.0,48.0,29.75,WNW,296,1.0,3.0,88,0.05,,,0.45,,2013-05-21 22:02:00,
2013-05-21 15:12:00,50.0,47.0,29.75,North,0,0.0,1.0,88,0.05,,,0.45,,2013-05-21 22:12:00,
2013-05-21 15:22:00,50.0,47.0,29.75,North,0,0.0,1.0,88,0.05,,,0.45,,2013-05-21 22:22:00,
2013-05-21 15:33:00,51.0,48.0,29.75,NW,312,1.0,3.0,90,0.05,,,0.45,,2013-05-21 22:33:00,
2013-05-21 15:41:00,53.0,48.0,29.74,North,0,0.0,2.0,84,0.05,,,0.45,,2013-05-21 22:41:00,
2013-05-21 15:52:00,53.0,48.0,29.74,North,0,0.0,2.0,84,0.05,,,0.45,,2013-05-21 22:52:00,
2013-05-21 16:02:00,52.0,47.0,29.74,NE,42,1.0,4.0,83,0.00,,,0.45,,2013-05-21 23:02:00,
2013-05-21 16:11:00,51.0,47.0,29.75,NW,321,1.0,6.0,85,0.00,,,0.45,,2013-05-21 23:11:00,
2013-05-21 16:22:00,51.0,47.0,29.75,NW,321,1.0,6.0,85,0.00,,,0.45,,2013-05-21 23:22:00,
2013-05-21 16:32:00,51.0,48.0,29.75,North,353,1.0,6.0,88,0.00,,,0.45,,2013-05-21 23:32:00,
2013-05-21 16:41:00,50.0,47.0,29.75,NNE,27,1.0,4.0,89,0.00,,,0.45,,2013-05-21 23:41:00,
2013-05-21 16:52:00,50.0,47.0,29.75,NNE,27,1.0,4.0,89,0.00,,,0.45,,2013-05-21 23:52:00,
2013-05-21 17:01:00,50.0,47.0,29.75,NNW,329,1.0,5.0,89,0.00,,,0.45,,2013-05-22 00:01:00,
2013-05-21 17:11:00,52.0,49.0,29.74,NNW,329,3.0,7.0,88,0.00,,,0.45,,2013-05-22 00:11:00,
2013-05-21 17:21:00,52.0,49.0,29.74,NNW,329,3.0,7.0,88,0.00,,,0.45,,2013-05-22 00:21:00,
2013-05-21 17:31:00,53.0,48.0,29.74,NNW,327,2.0,4.0,84,0.00,,,0.45,,2013-05-22 00:31:00,
2013-05-21 17:41:00,52.0,47.0,29.74,WNW,293,4.0,6.0,83,0.00,,,0.45,,2013-05-22 00:41:00,
2013-05-21 17:51:00,52.0,47.0,29.74,WNW,293,4.0,6.0,83,0.00,,,0.45,,2013-05-22 00:51:00,
2013-05-21 18:01:00,52.0,47.0,29.75,NNE,28,1.0,4.0,83,0.00,,,0.45,,2013-05-22 01:01:00,
2013-05-21 18:11:00,52.0,47.0,29.75,NNE,28,1.0,4.0,83,0.00,,,0.45,,2013-05-22 01:11:00,
2013-05-21 18:21:00,52.0,47.0,29.75,WNW,299,3.0,6.0,83,0.00,,,0.45,,2013-05-22 01:21:00,
2013-05-21 18:31:00,50.0,47.0,29.75,North,0,0.0,3.0,89,0.05,,,0.50,,2013-05-22 01:31:00,
2013-05-21 18:41:00,50.0,47.0,29.75,North,0,0.0,2.0,91,0.07,,,0.52,,2013-05-22 01:41:00,
2013-05-21 18:52:00,50.0,47.0,29.75,North,0,0.0,2.0,91,0.07,,,0.52,,2013-05-22 01:52:00,
2013-05-21 19:01:00,50.0,47.0,29.75,North,0,0.0,3.0,91,0.07,,,0.52,,2013-05-22 02:01:00,
2013-05-21 19:11:00,50.0,47.0,29.76,North,0,0.0,3.0,91,0.06,,,0.52,,2013-05-22 02:11:00,
2013-05-21 19:21:00,50.0,47.0,29.76,North,0,0.0,3.0,91,0.06,,,0.52,,2013-05-22 02:21:00,
2013-05-21 19:31:00,51.0,49.0,29.76,North,0,0.0,1.0,92,0.03,,,0.52,,2013-05-22 02:31:00,
2013-05-21 19:41:00,51.0,48.0,29.77,North,0,0.0,1.0,91,0.01,,,0.52,,2013-05-22 02:41:00,
2013-05-21 19:52:00,51.0,48.0,29.77,North,0,0.0,1.0,91,0.01,,,0.52,,2013-05-22 02:52:00,
2013-05-21 20:01:00,50.0,47.0,29.77,North,0,0.0,1.0,90,0.00,,,0.52,,2013-05-22 03:01:00,
2013-05-21 20:11:00,50.0,47.0,29.78,North,0,0.0,3.0,90,0.00,,,0.52,,2013-05-22 03:11:00,
2013-05-21 20:21:00,50.0,47.0,29.78,North,0,0.0,3.0,90,0.00,,,0.52,,2013-05-22 03:21:00,
2013-05-21 20:33:00,50.0,47.0,29.78,North,0,0.0,1.0,91,0.00,,,0.52,,2013-05-22 03:33:00,
2013-05-21 20:43:00,49.0,45.0,29.78,SSW,194,5.0,9.0,85,0.00,,,0.52,,2013-05-22 03:43:00,
2013-05-21 20:53:00,49.0,45.0,29.78,SSW,194,5.0,9.0,85,0.00,,,0.52,,2013-05-22 03:53:00,
2013-05-21 21:03:00,49.0,45.0,29.79,South,177,3.0,7.0,85,0.00,,,0.52,,2013-05-22 04:03:00,
2013-05-21 21:12:00,49.0,45.0,29.79,South,177,3.0,7.0,85,0.00,,,0.52,,2013-05-22 04:12:00,
2013-05-21 21:22:00,49.0,44.0,29.79,SSW,205,4.0,12.0,84,0.00,,,0.52,,2013-05-22 04:22:00,
2013-05-21 21:32:00,48.0,44.0,29.80,SSW,210,6.0,13.0,85,0.00,,,0.52,,2013-05-22 04:32:00,
2013-05-21 21:42:00,48.0,43.0,29.80,SSW,200,3.0,12.0,84,0.00,,,0.52,,2013-05-22 04:42:00,
2013-05-21 21:53:00,48.0,43.0,29.80,SSW,200,3.0,12.0,84,0.00,,,0.52,,2013-05-22 04:53:00,
2013-05-21 22:02:00,48.0,43.0,29.80,South,176,3.0,12.0,84,0.00,,,0.52,,2013-05-22 05:02:00,
2013-05-21 22:11:00,48.0,44.0,29.80,South,176,2.0,7.0,85,0.00,,,0.52,,2013-05-22 05:11:00,
2013-05-21 22:21:00,48.0,44.0,29.80,South,176,2.0,7.0,85,0.00,,,0.52,,2013-05-22 05:21:00,
2013-05-21 22:31:00,48.0,44.0,29.80,South,187,3.0,7.0,86,0.00,,,0.52,,2013-05-22 05:31:00,
2013-05-21 22:41:00,48.0,44.0,29.80,South,173,4.0,11.0,86,0.00,,,0.52,,2013-05-22 05:41:00,
2013-05-21 22:51:00,48.0,44.0,29.80,South,173,4.0,11.0,86,0.00,,,0.52,,2013-05-22 05:51:00,
2013-05-21 23:01:00,48.0,44.0,29.80,South,191,4.0,11.0,87,0.00,,,0.52,,2013-05-22 06:01:00,
2013-05-21 23:11:00,48.0,44.0,29.81,South,191,3.0,11.0,87,0.00,,,0.52,,2013-05-22 06:11:00,
2013-05-21 23:21:00,48.0,44.0,29.81,South,191,3.0,11.0,87,0.00,,,0.52,,2013-05-22 06:21:00,
2013-05-21 23:31:00,48.0,45.0,29.80,SSW,206,3.0,11.0,88,0.00,,,0.52,,2013-05-22 06:31:00,
2013-05-21 23:41:00,47.0,44.0,29.80,South,187,3.0,11.0,88,0.00,,,0.52,,2013-05-22 06:41:00,
2013-05-21 23:52:00,47.0,44.0,29.80,South,187,3.0,11.0,88,0.00,,,0.52,,2013-05-22 06:52:00,